This is the latest recevied weather packets stored in our database for station/object XE2B-20. If no packets are shown the sender has not sent any weather packets the latest 10 day(s).
| Time | Temp. | Humidity | Pressure | Rain* | Wind** | Luminosity | Snow |
|---|---|---|---|---|---|---|---|
| 1777937682 | 32.78° C | 14% | 803.2 hPa | - | - | - | - |
| 1777936185 | 33.33° C | 14% | 803.3 hPa | - | - | - | - |
| 1777934685 | 34.44° C | 14% | 803.4 hPa | - | - | - | - |
| 1777933187 | 34.44° C | 14% | 803.5 hPa | - | - | - | - |
| 1777931689 | 35° C | 14% | 803.8 hPa | - | - | - | - |
| 1777930190 | 35.56° C | 13% | 804 hPa | - | - | - | - |
| 1777928692 | 34.44° C | 14% | 804.2 hPa | - | - | - | - |
| 1777927192 | 34.44° C | 14% | 804.7 hPa | - | - | - | - |
| 1777925695 | 34.44° C | 14% | 805.2 hPa | - | - | - | - |
| 1777924196 | 33.33° C | 15% | 805.3 hPa | - | - | - | - |
| 1777922698 | 32.22° C | 16% | 805.6 hPa | - | - | - | - |
| 1777921200 | 32.78° C | 15% | 806 hPa | - | - | - | - |
| 1777919702 | 32.78° C | 16% | 806.1 hPa | - | - | - | - |
| 1777918203 | 32.22° C | 15% | 806.5 hPa | - | - | - | - |
| 1777916704 | 31.67° C | 16% | 806.9 hPa | - | - | - | - |
| 1777915204 | 31.11° C | 17% | 807.1 hPa | - | - | - | - |
| 1777913706 | 31.67° C | 16% | 807.4 hPa | - | - | - | - |
| 1777912207 | 30° C | 17% | 807.4 hPa | - | - | - | - |
| 1777910709 | 28.89° C | 18% | 807.7 hPa | - | - | - | - |
| 1777909209 | 28.33° C | 18% | 807.8 hPa | - | - | - | - |
| 1777907711 | 28.89° C | 17% | 808.1 hPa | - | - | - | - |
| 1777906218 | 25.56° C | 19% | 808 hPa | - | - | - | - |
| 1777904710 | 25° C | 19% | 808 hPa | - | - | - | - |
| 1777903211 | 23.89° C | 20% | 807.9 hPa | - | - | - | - |
| 1777901712 | 22.78° C | 20% | 807.8 hPa | - | - | - | - |
* Rain since midnight (hover to see other rain measurements)
** Current wind speed in m/s (hover to see current wind gust speed)